User: anonymous   Login
Location: Alto Pass Reservoir
(37.5801°N, 89.3084°W)
Time: 12:10:05
(UTC+00:00)
Language:

CZ-4B R/B - Orbit

View from above orbital plane
View from above orbital plane
View from above satellite
View from above satellite

Ground track
Ground track

The orbit data is extracted from the following two-line orbital elements,

1 27432U 02024C   22142.91901735  .00000049  00000-0  49274-4 0  9995
2 27432  99.0632 167.6639 0050192 350.0350  81.9680 14.14138866 33213
Epoch (UTC): 22 May 2022 22:03:23
Eccentricity: 0.0050192
inclination: 99.0632°
perigee height: 809 km
apogee height: 881 km
right ascension of ascending node: 167.6639°
argument of perigee: 350.0350°
revolutions per day: 14.14138866
mean anomaly at epoch: 81.9680°
orbit number at epoch: 3321

The dashed part of the orbit path shows where the satellite is in the earth's shadow,  

DLR